Regional Weather Roundup
Issued by NWS

Home | Current Version | Previous Version | Graphics & Text | Print | Product List | Glossary On
Versions: 1 2 3 4 5 6 7 8 9 10 11 12 13 14 15 16 17 18 19 20 21 22 23 24 25 26 27 28 29 30 31 32 33 34 35 36 37 38 39 40 41 42 43 44 45 46 47 48 49 50
000
ASUS45 KCYS 260110
RWRWY

WYOMING REGIONAL WEATHER ROUNDUP
NATIONAL WEATHER SERVICE CHEYENNE WY
700 PM MDT SUN JUN 25 2017

NOTE:  "FAIR" INDICATES FEW OR NO CLOUDS BELOW 12,000 FEET
WITH NO SIGNIFICANT WEATHER AND/OR OBSTRUCTIONS TO VISIBILITY.

WYZ001-260200-
YELLOWSTONE NATIONAL PARK

CITY           SKY/WX    TMP DP  RH WIND       PRES   REMARKS
LK YELLOWSTONE   N/A     67  34  29 VRB3      30.41F
W YELLOWSTONE  NOT AVBL

$$
WYZ002>013-054>058-071-098>099-260200-
NORTHERN WYOMING

CITY           SKY/WX    TMP DP  RH WIND       PRES   REMARKS
JACKSON        SUNNY     75  37  25 NW9       30.31S
CODY           FAIR      75  38  26 NE10      30.28S
GREYBULL       FAIR      82  31  15 NW16      30.18S
WORLAND        FAIR      80  37  21 NE7       30.20F
SHERIDAN       FAIR      75  39  27 NW12      30.25S
BUFFALO        FAIR      72  38  29 N12       30.30S
GILLETTE       FAIR      75  32  20 N10G21    30.25S
NEWCASTLE      FAIR      73  25  16 NW13G22   30.24S

$$
WYZ014>020-022>026-101>103-260200-
CENTRAL WYOMING

CITY           SKY/WX    TMP DP  RH WIND       PRES   REMARKS
BIG PINEY      PTSUNNY   77  38  24 SW6       30.33F
PINEDALE       FAIR      73  30  20 NW13      30.35S
DUBOIS         FAIR      70  34  26 SE16G22   30.35S
LANDER         FAIR      77  38  24 NE9       30.24S
RIVERTON       FAIR      77  34  21 NE7       30.25F
CASPER         FAIR      78  31  17 N7        30.26S
DOUGLAS        FAIR      77  34  21 VRB6      30.26S

$$
WYZ021-027>030-104>119-260200-
SOUTHERN WYOMING

CITY           SKY/WX    TMP DP  RH WIND       PRES   REMARKS
EVANSTON       FAIR      79  28  15 N7        30.33F
KEMMERER         N/A     77  32  19 W9        30.36S
FORT BRIDGER   FAIR      81  25  13 NW3       30.36S
ROCK SPRINGS   FAIR      77  23  13 SE3       30.31F
DIXON          FAIR      80  22  11 NE13      30.32S
RAWLINS        FAIR      75  20  12 N14       30.34F
SARATOGA       FAIR      73  23  15 N12       30.35S
LARAMIE        FAIR      69  44  40 E15       30.36R
CHEYENNE       FAIR      67  47  48 SE8       30.33S
TORRINGTON     FAIR      77  40  26 S6        30.21S
PINE BLUFFS    FAIR      70  50  49 E10       30.29S

$$



USA.gov is the U.S. government's official web portal to all federal, state and local government web resources and services.